Powrót do katalogu

STARLINK-33752

AktywnyŁącznośćVLEO
NORAD 63580·PAYLOAD·🇺🇸 United States

Wystrzelony Apr 14, 2025 z Cape Canaveral Space Force Station

Loading…

Następne Przeloty (najbliższe 24 godziny)

TLE

ŚwieżeSource: CelesTrak SupGP

Epoka: Sep 15, 2026, 02:14 UTC

1 63580C 25076M   26258.09354167  .00040558  00000+0  14688-2 0  2588
2 63580  43.0026 332.1593 0001675 264.2648 177.6955 15.27562324    14

Śledź STARLINK-33752 w czasie rzeczywistym z AllMySat

Download on the App Store